Location: Bois de la Silve
(44.4667°N, 6.7833°E)
Time: 08:47:50
(UTC+00:00)

COBE Rocket - Pass Details

Date: 14 July 2020
Orbit: 679 x 783 km, 97.1° (Epoch: 14 August)

Event Time Altitude Azimuth Distance (km) Brightness Sun altitude
Exits shadow 02:23:54 15° 185° (S) 1,967 5.6 -13.9°
Maximum altitude 02:28:01 56° 261° (W) 881 4.1 -13.4°
Drops below altitude 10° 02:32:52 10° 340° (NNW) 2,233 6.8 -12.9°
Sets 02:35:10 0° 345° (NNW) 3,142 7.7 -12.6°
